Guernsey, United Kingdom

5:19 AM BST on July 30, 2016 (GMT +0100)
Guernsey

Weather History for EGJB - October, 2013

Change the Weather History Date:

Wednesday, October 23, 2013

  Actual Average Record
Temperature  
Mean Temperature 58 °F -  
Max Temperature 61 °F 52 °F 62 °F (1996)
Min Temperature 54 °F 47 °F 42 °F (2007)
Degree Days  
Heating Degree Days 7    
Growing Degree Days 8 (Base 50)    
Moisture  
Dew Point 55 °F    
Average Humidity 86    
Maximum Humidity 94    
Minimum Humidity 78    
Precipitation  
Precipitation 0.00 in - - ()
Sea Level Pressure  
Sea Level Pressure 29.61 in    
Wind  
Wind Speed 21 mph ()    
Max Wind Speed 32 mph    
Max Gust Speed 43 mph    
Visibility 7.8 miles    
Events Rain    
Averages and records for this station are not official NWS values.
T = Trace of Precipitation, MM = Missing Value Source: Averaged Metar Reports

Daily Weather History Graph

Daily Weather History Graph

Search for Another Location

Airport or City:

Trip Planner

Search our weather history database for the weather conditions in past years. The results will help you decide how hot, cold, wet, or windy it might be!

Date:

Astronomy

Oct. 23, 2013 Rise Set
Actual Time 7:44 AM BST 6:04 PM BST
Civil Twilight 7:11 AM BST 6:37 PM BST
Nautical Twilight 6:34 AM BST 7:14 PM BST
Astronomical Twilight 5:57 AM BST 7:51 PM BST
Moon 9:08 PM BST (10/23) 12:04 PM BST (10/23)
Length of Visible Light 11h 25m
Length of Day
10h 20m
Waning Gibbous, 81% of the Moon is Illuminated
Oct 23
Waning Gibbous
Oct 27
Last Quarter
Nov 3
New
Nov 10
First Quarter
Nov 17
Full

Hourly Weather History & Observations

Time (BST) Temp. Dew Point Humidity Pressure Visibility Wind Dir Wind Speed Gust Speed Precip Events Conditions
1:00 AM 59 °F 54 °F 79% 29.32 in 12 mi South 26.5 mph - -   Mostly Cloudy
3:50 AM 59.0 °F 55.4 °F 88% 29.33 in 6.2 mi SSW 27.6 mph - N/A   Mostly Cloudy
4:00 AM 59 °F 55 °F 82% 29.34 in 16 mi SSW 27.6 mph - - Rain Light Rain Showers
4:20 AM 59.0 °F 55.4 °F 88% 29.36 in 6.2 mi SW 26.5 mph 38.0 mph N/A   Mostly Cloudy
4:50 AM 59.0 °F 55.4 °F 88% 29.36 in 6.2 mi SW 28.8 mph - N/A   Mostly Cloudy
5:20 AM 59.0 °F 55.4 °F 88% 29.39 in 6.2 mi SW 31.1 mph 42.6 mph N/A   Mostly Cloudy
5:50 AM 59.0 °F 55.4 °F 88% 29.39 in 6.2 mi SW 32.2 mph - N/A   Mostly Cloudy
6:20 AM 57.2 °F 55.4 °F 94% 29.42 in 6.2 mi SW 31.1 mph 42.6 mph N/A Rain Light Rain Showers
6:50 AM 59.0 °F 55.4 °F 88% 29.44 in 6.2 mi SW 29.9 mph - N/A   Mostly Cloudy
7:00 AM 58 °F 55 °F 86% 29.44 in 12 mi SW 29.9 mph - - Rain Light Rain Showers
7:20 AM 59.0 °F 57.2 °F 94% 29.44 in 6.2 mi SW 27.6 mph - N/A   Mostly Cloudy
7:50 AM 59.0 °F 55.4 °F 88% 29.47 in 6.2 mi WSW 26.5 mph - N/A   Mostly Cloudy
8:20 AM 59.0 °F 55.4 °F 88% 29.50 in 6.2 mi WSW 27.6 mph - N/A   Scattered Clouds
8:50 AM 59.0 °F 55.4 °F 88% 29.53 in 6.2 mi WSW 24.2 mph - N/A   Scattered Clouds
9:20 AM 59.0 °F 55.4 °F 88% 29.53 in 6.2 mi WSW 25.3 mph - N/A   Scattered Clouds
9:50 AM 59.0 °F 55.4 °F 88% 29.56 in 6.2 mi WSW 24.2 mph - N/A   Scattered Clouds
10:00 AM 59 °F 55 °F 82% 29.58 in 12 mi WSW 24.2 mph - -   Partly Cloudy
10:20 AM 59.0 °F 55.4 °F 88% 29.59 in 6.2 mi WSW 24.2 mph - N/A   Scattered Clouds
10:50 AM 59.0 °F 55.4 °F 88% 29.62 in 6.2 mi WSW 21.9 mph - N/A   Scattered Clouds
11:20 AM 59.0 °F 55.4 °F 88% 29.62 in 6.2 mi WSW 20.7 mph - N/A   Scattered Clouds
11:50 AM 60.8 °F 55.4 °F 82% 29.65 in 6.2 mi West 18.4 mph - N/A   Partly Cloudy
12:20 PM 60.8 °F 55.4 °F 82% 29.65 in 6.2 mi West 20.7 mph - N/A   Partly Cloudy
12:50 PM 60.8 °F 57.2 °F 88% 29.65 in 6.2 mi WSW 19.6 mph - N/A   Scattered Clouds
1:00 PM 60 °F 56 °F 83% 29.68 in 16 mi WSW 19.6 mph - -   Partly Cloudy
1:20 PM 60.8 °F 55.4 °F 82% 29.68 in 6.2 mi WSW 19.6 mph - N/A   Scattered Clouds
1:50 PM 60.8 °F 55.4 °F 82% 29.68 in 6.2 mi WSW 18.4 mph - N/A   Scattered Clouds
2:20 PM 60.8 °F 57.2 °F 88% 29.68 in 6.2 mi WSW 18.4 mph - N/A   Partly Cloudy
2:50 PM 60.8 °F 55.4 °F 82% 29.71 in 6.2 mi WSW 17.3 mph - N/A   Scattered Clouds
3:20 PM 60.8 °F 55.4 °F 82% 29.71 in 6.2 mi WSW 17.3 mph - N/A   Partly Cloudy
3:50 PM 59.0 °F 55.4 °F 88% 29.71 in 6.2 mi WSW 18.4 mph - N/A   Partly Cloudy
4:00 PM 60 °F 55 °F 78% 29.73 in 19 mi WSW 18.4 mph - -   Scattered Clouds
4:20 PM 59.0 °F 55.4 °F 88% 29.74 in 6.2 mi West 17.3 mph - N/A   Partly Cloudy
4:50 PM 59.0 °F 53.6 °F 82% 29.74 in 6.2 mi West 12.7 mph - N/A   Partly Cloudy
5:20 PM 59.0 °F 53.6 °F 82% 29.77 in 6.2 mi West 12.7 mph - N/A   Partly Cloudy
5:50 PM 57.2 °F 53.6 °F 88% 29.77 in 6.2 mi West 10.4 mph - N/A   Partly Cloudy
6:20 PM 57.2 °F 51.8 °F 82% 29.77 in 6.2 mi West 11.5 mph - N/A   Partly Cloudy
6:50 PM 55.4 °F 51.8 °F 88% 29.80 in 6.2 mi West 10.4 mph - N/A   Partly Cloudy
7:00 PM 56 °F 52 °F 83% 29.81 in 16 mi West 10.4 mph - -   Scattered Clouds
7:20 PM 55.4 °F 53.6 °F 94% 29.83 in 6.2 mi WSW 9.2 mph - N/A   Partly Cloudy
7:50 PM 55.4 °F 53.6 °F 94% 29.83 in 6.2 mi West 9.2 mph - N/A   Partly Cloudy
8:20 PM 55.4 °F 51.8 °F 88% 29.83 in 6.2 mi WSW 8.1 mph - N/A   Partly Cloudy
8:50 PM 55.4 °F 51.8 °F 88% 29.86 in 6.2 mi WSW 6.9 mph - N/A   Partly Cloudy
10:00 PM 54 °F 52 °F 90% 29.88 in 16 mi WSW 5.8 mph - -   Scattered Clouds